Find Starlink 6327

NORAD ID: 56522 Int'l Des: 2023-065 Owner: SPXS Country: US Constellation: starlink operational
LEOCIRCULAR

現在のビュー

3D地球を読み込み中...

About Starlink 6327

Starlink 6327 (NORAD 56522) is a starlink constellation satellite (v1.5) launched May 14, 2023 by SPXS of US. It operates in LEO, CIRCULAR orbit with a mass of 305.00 kg.

Starlink 6327について

説明を読み込み中...

次回通過

Passes for default location (London). Set your location on the main map for personalized predictions.

高度履歴

Loading altitude history...

軌道要素

1 56522C 23065V 26173.85951389 .00044657 00000+0 16163-2 0 1731
2 56522 43.0000 338.6627 0001533 278.3986 41.4131 15.27579047 11
Epoch: Jun 22, 2026 • Age: 17 hours

現在のステータス

高度 482.4 km
速度 7.63 km/s
衛星直下点 7.74°N, 36.24°E
打ち上げ日 May 14, 2023
運用期間 3.1 years
タイプ internet

技術仕様

分類 Payload
質量 305.00 kg
乾燥質量 290.00 kg
総質量 305.00 kg
長さ 0.20 m
直径 2.80 m
スパン 9.00 m
形状 Box + pan
製造者 SPXS
バスタイプ Starlink
フェーズステータス In Orbit
所有者/国 SPXS/US

Most Searched